Wind_Speed
25 25 24 23 22 21 19 16 13 11 10 8 7 9 11 13 16 19 21 23 26 28 30 33 36 37 38 38 39 39 39 38 37 36 35 34 34 33 33 33 33 33 33
26 26 25 24 22 21 19 17 15 13 12 10 8 8 9 11 14 17 19 21 23 25 28 30 33 35 37 37 38 38 38 38 36 35 35 35 35 34 33 34 34 34 34
26 26 25 25 23 21 20 19 17 15 14 12 10 8 7 8 11 14 16 19 21 23 25 27 30 33 34 35 35 36 36 36 36 35 35 35 35 35 35 34 34 33 34
26 26 25 25 24 22 21 20 18 17 15 13 11 10 8 6 8 10 13 16 18 21 23 24 26 28 31 32 33 33 35 35 35 34 34 34 35 35 34 34 34 34 33
26 26 26 25 24 23 22 21 20 19 17 15 13 11 10 7 6 7 10 13 15 18 20 22 23 24 27 28 30 31 32 33 33 33 32 31 32 33 33 33 33 33 32
25 25 26 25 25 24 23 22 21 20 19 16 15 13 11 9 6 6 7 10 12 14 17 19 21 22 23 25 28 28 29 30 32 32 32 30 30 31 31 31 31 31 32
24 24 25 25 25 24 24 23 23 21 20 19 17 14 13 10 8 5 4 7 9 11 13 16 18 19 20 21 24 25 25 26 28 29 28 28 28 28 29 30 29 29 30
24 24 24 24 24 24 23 23 23 22 21 20 19 17 14 12 9 6 4 2 5 7 10 13 15 17 18 19 20 23 23 23 24 25 26 27 27 27 28 28 28 27 28
23 24 24 24 23 23 23 23 23 23 22 21 20 19 17 14 11 8 6 3 1 4 7 9 11 13 15 17 18 19 20 21 22 22 23 25 25 25 24 25 24 24 25
22 23 23 23 23 22 22 22 23 23 23 21 20 20 18 15 12 10 8 6 4 1 2 6 8 10 13 14 16 17 18 19 20 20 20 22 23 23 22 22 22 22 23
21 22 22 22 21 21 21 21 22 22 22 22 21 20 18 17 14 12 10 8 6 4 1 2 5 7 9 12 13 14 15 16 17 18 18 19 19 19 20 21 21 21 21
21 21 21 21 20 20 19 20 21 21 21 21 20 19 19 17 15 13 11 9 8 6 3 1 3 5 7 9 10 11 13 14 14 16 17 18 18 18 18 18 19 18 18
20 20 20 20 20 19 18 19 19 19 20 20 19 19 18 17 16 14 12 9 7 6 5 2 1 4 6 8 8 9 11 12 12 14 15 15 16 16 17 17 18 18 18
20 20 20 20 19 19 18 18 18 18 18 18 18 17 17 16 15 14 12 10 8 7 5 3 1 2 4 6 8 8 9 10 11 12 13 13 14 15 16 16 17 17 17
21 21 20 20 20 19 19 18 18 17 17 17 16 16 16 15 14 13 12 10 8 6 5 3 2 1 2 4 6 7 8 9 9 10 11 12 13 14 15 15 15 15 15
22 21 21 21 20 20 19 19 18 18 17 17 16 15 15 14 13 12 11 9 8 7 5 4 2 1 2 3 5 6 8 9 9 9 10 11 12 14 14 14 15 15 16
23 23 23 22 22 21 21 20 19 19 18 17 17 16 15 14 13 12 11 9 8 7 5 4 3 1 2 3 4 5 7 8 8 9 10 10 12 13 13 14 14 14 14
26 25 25 24 24 23 22 22 21 20 19 19 18 17 16 15 14 13 12 11 9 8 7 6 4 4 4 4 5 6 7 7 8 9 10 10 11 12 13 14 14 15 15
28 27 27 26 26 26 25 24 24 23 22 21 20 19 18 17 16 15 14 13 12 11 10 9 8 7 6 6 7 7 8 9 9 10 11 11 12 12 13 13 14 14 14
30 30 30 29 29 28 28 27 27 26 25 24 23 22 21 20 19 18 17 16 15 14 14 13 12 11 10 10 10 10 10 10 10 10 11 12 12 13 13 14 14 14 14
32 32 33 32 32 32 32 31 30 30 29 28 27 26 25 24 23 21 20 19 18 17 17 16 16 15 15 14 14 14 14 13 13 13 13 13 14 14 14 15 15 16 15
35 35 35 35 35 35 35 34 34 34 33 33 31 30 29 28 27 26 25 24 22 21 20 20 19 19 18 17 17 17 16 16 16 16 16 16 15 15 16 16 16 17 17
38 38 38 38 38 38 38 38 38 37 37 37 37 36 34 33 32 31 30 29 27 26 25 24 23 23 22 21 20 20 19 19 19 19 18 18 18 17 17 17 17 18 18
41 41 41 41 41 42 42 42 42 42 42 41 41 41 40 39 37 35 34 33 32 31 30 29 28 27 26 26 25 24 23 23 22 22 22 21 21 20 20 20 20 20 20
43 44 44 44 45 45 45 46 46 46 46 46 46 46 45 44 43 41 39 38 37 36 34 33 32 31 30 30 29 28 28 27 26 26 25 25 24 24 24 23 23 23 23
47 47 48 48 48 49 49 49 50 50 50 50 50 50 50 49 48 46 45 43 42 40 39 38 37 36 35 33 32 32 31 31 30 30 29 29 28 27 27 26 26 26 25
Wind_Direction
12 12 11 10 10 10 9 8 5 1 351 331 301 279 262 250 244 241 238 236 234 234 232 231 230 231 234 235 235 235 235 236 236 236 236 237 239 240 239 240 242 244 246
14 14 14 13 13 14 14 14 13 11 4 353 331 302 277 260 250 245 242 239 237 235 233 231 230 232 234 236 237 237 237 238 238 239 239 239 240 242 243 243 245 246 247
16 16 16 16 17 17 17 16 16 14 9 2 352 336 304 277 261 251 246 241 238 236 234 233 232 232 234 236 238 238 238 239 239 240 241 241 240 241 244 246 246 248 249
18 18 18 19 19 19 19 19 17 14 11 6 2 353 335 303 274 256 245 241 238 236 235 234 233 233 234 235 236 238 239 239 238 238 240 240 240 241 242 245 248 248 248
18 19 19 19 20 20 20 20 18 16 12 8 3 355 349 333 300 265 248 241 238 236 234 233 234 235 235 235 235 236 237 238 237 238 239 241 241 241 243 245 246 246 248
15 16 17 18 19 19 20 20 20 18 16 13 9 6 360 349 331 295 257 243 237 236 234 233 234 235 236 236 234 235 236 235 236 238 240 240 243 244 245 245 244 245 248
13 14 15 16 18 19 20 20 20 19 18 18 17 14 11 3 351 332 289 250 240 236 233 231 231 232 232 233 232 231 232 234 236 237 239 241 243 243 244 244 242 246 248
11 12 13 14 16 17 19 20 20 21 21 20 20 18 16 15 11 6 358 279 237 232 231 229 229 229 229 229 229 230 229 229 233 235 238 238 240 240 241 242 241 243 244
9 10 12 13 15 16 18 20 21 21 22 22 22 21 22 22 24 23 20 8 268 234 227 224 223 225 224 225 226 226 224 225 229 231 234 234 235 236 236 237 238 239 240
4 6 8 10 13 14 16 17 18 19 20 21 22 23 25 26 30 31 30 31 37 56 198 207 212 216 216 216 219 219 221 224 227 226 228 230 231 232 232 234 237 239 239
357 1 3 6 8 10 13 14 15 16 18 20 21 22 23 25 28 31 31 32 31 33 78 198 207 211 213 211 212 215 217 221 222 221 223 222 226 229 232 234 234 234 233
351 354 358 0 2 4 6 9 11 14 15 16 19 21 22 23 24 26 28 31 32 33 41 147 195 205 208 206 209 212 212 212 215 219 220 222 224 226 227 227 226 226 228
344 346 350 353 355 356 358 0 3 6 9 12 15 17 20 22 23 23 26 28 30 37 45 62 180 200 204 205 204 208 215 216 215 218 218 216 217 218 220 222 222 224 228
338 340 341 344 347 348 348 350 353 356 359 3 7 10 13 16 18 19 21 25 29 33 33 39 74 186 197 201 203 205 209 216 216 215 213 217 218 218 218 220 222 225 227
330 332 334 336 337 339 341 341 342 345 347 351 354 356 360 3 7 12 15 19 26 29 30 30 27 164 198 205 208 210 210 212 214 214 214 220 219 215 218 221 220 222 224
319 321 324 326 328 330 331 332 333 334 335 337 340 342 344 347 350 355 0 5 11 17 19 19 14 325 216 213 211 214 213 213 218 216 215 216 217 215 216 218 220 222 225
310 312 313 314 316 319 321 323 324 324 325 325 326 327 329 330 333 335 337 339 339 341 342 341 334 305 238 224 219 216 217 219 223 223 223 220 218 218 219 221 223 223 225
303 304 305 306 307 308 309 311 312 314 315 316 316 316 316 316 316 315 315 314 312 311 310 307 299 287 266 250 240 234 229 228 226 227 227 225 224 224 224 224 226 227 229
299 299 299 299 299 299 300 301 302 303 304 304 305 305 306 306 305 303 301 299 296 292 289 286 281 275 268 261 253 248 243 239 236 236 233 232 231 231 231 232 230 230 229
296 295 295 295 294 293 293 293 293 294 294 295 295 294 294 294 294 293 292 290 286 282 278 274 271 268 264 260 257 252 248 245 243 241 238 235 235 236 235 233 232 230 229
293 293 293 292 291 290 289 288 287 287 287 286 286 286 285 284 284 283 282 281 280 278 274 270 267 264 262 259 257 254 251 248 246 244 244 242 240 239 237 236 235 232 231
291 290 290 289 289 288 287 286 285 283 282 281 280 279 278 278 277 276 275 274 272 271 270 267 265 262 260 258 257 254 252 249 247 246 245 244 242 240 238 237 237 236 236
291 290 288 287 286 285 284 283 282 281 279 277 276 275 273 272 271 271 270 269 267 266 265 263 262 260 258 257 255 254 253 251 249 248 246 244 242 241 241 240 239 239 239
291 290 289 287 286 284 282 281 280 278 277 275 273 271 270 268 267 266 265 264 263 262 261 260 259 258 257 255 254 253 253 252 250 248 246 245 245 244 244 244 243 243 244
291 290 289 288 286 285 283 281 279 277 275 273 271 269 267 265 264 262 261 261 260 259 258 257 257 256 255 254 253 252 251 250 249 248 247 246 246 246 247 247 248 248 248
291 290 289 288 286 285 283 281 279 277 274 272 269 267 265 263 261 260 258 258 257 256 255 255 255 254 254 253 252 251 250 250 249 248 248 247 247 247 248 248 249 249 249
Height
5792 5786 5781 5775 5770 5765 5761 5757 5753 5751 5749 5747 5746 5745 5745 5746 5747 5748 5750 5752 5755 5758 5761 5766 5770 5774 5779 5783 5787 5791 5795 5800 5803 5807 5810 5814 5817 5821 5824 5827 5830 5832 5834
5793 5787 5782 5776 5771 5766 5761 5757 5754 5751 5749 5746 5744 5743 5742 5742 5743 5744 5745 5747 5750 5752 5755 5759 5763 5767 5771 5775 5779 5783 5787 5791 5795 5798 5802 5806 5810 5813 5816 5819 5822 5824 5827
5795 5789 5783 5778 5772 5767 5763 5759 5756 5752 5749 5746 5744 5742 5740 5739 5739 5739 5740 5742 5744 5747 5750 5753 5756 5760 5764 5768 5771 5775 5778 5782 5786 5790 5794 5798 5801 5805 5808 5811 5814 5816 5819
5797 5791 5785 5780 5774 5769 5765 5761 5757 5753 5749 5746 5743 5741 5738 5737 5736 5736 5736 5738 5739 5741 5744 5747 5750 5753 5757 5761 5764 5768 5771 5775 5778 5782 5786 5790 5793 5797 5800 5803 5806 5808 5810
5799 5793 5787 5782 5777 5772 5767 5763 5758 5754 5750 5746 5743 5740 5737 5735 5734 5733 5733 5734 5735 5737 5739 5742 5745 5748 5751 5754 5758 5761 5764 5768 5771 5775 5779 5782 5785 5789 5792 5795 5797 5799 5801
5801 5795 5790 5784 5779 5774 5769 5764 5760 5756 5751 5747 5743 5740 5737 5734 5732 5731 5730 5731 5732 5733 5735 5737 5740 5743 5745 5748 5751 5754 5758 5761 5765 5769 5772 5775 5778 5782 5784 5787 5789 5792 5794
5802 5797 5792 5786 5781 5776 5771 5766 5762 5757 5753 5748 5744 5740 5737 5734 5732 5730 5729 5729 5729 5730 5732 5734 5736 5738 5741 5743 5746 5749 5752 5755 5759 5762 5766 5769 5772 5775 5778 5780 5782 5784 5787
5804 5799 5793 5788 5783 5778 5773 5769 5764 5759 5754 5750 5746 5742 5738 5734 5732 5730 5728 5728 5728 5728 5729 5730 5732 5734 5736 5739 5741 5744 5747 5750 5753 5757 5760 5763 5766 5768 5771 5773 5775 5777 5779
5805 5800 5795 5790 5785 5781 5776 5771 5766 5762 5757 5752 5748 5744 5740 5736 5733 5731 5729 5728 5727 5727 5727 5728 5729 5731 5733 5735 5738 5740 5742 5745 5748 5751 5754 5756 5759 5762 5764 5766 5769 5771 5773
5806 5801 5797 5792 5787 5783 5778 5774 5769 5764 5760 5755 5750 5746 5742 5738 5735 5733 5731 5729 5728 5727 5727 5727 5728 5729 5731 5732 5735 5737 5739 5742 5744 5746 5749 5751 5754 5756 5758 5761 5763 5765 5767
5807 5802 5798 5793 5789 5784 5780 5776 5771 5767 5762 5757 5753 5749 5745 5741 5738 5735 5733 5731 5729 5728 5728 5727 5728 5729 5730 5731 5733 5735 5737 5739 5741 5743 5745 5747 5750 5752 5754 5756 5758 5761 5763
5807 5802 5798 5794 5790 5786 5782 5778 5773 5769 5765 5760 5756 5752 5748 5745 5741 5738 5736 5733 5732 5730 5729 5729 5729 5729 5730 5730 5732 5733 5735 5737 5738 5740 5742 5744 5746 5748 5750 5752 5754 5756 5758
5806 5802 5798 5794 5790 5786 5783 5779 5775 5771 5767 5763 5759 5755 5751 5748 5744 5741 5738 5736 5734 5732 5731 5730 5729 5729 5729 5730 5731 5732 5733 5735 5736 5738 5739 5741 5743 5744 5746 5749 5750 5752 5754
5804 5801 5797 5793 5790 5786 5783 5779 5775 5772 5768 5764 5761 5757 5754 5750 5747 5744 5741 5738 5736 5734 5733 5731 5730 5730 5730 5730 5731 5732 5733 5734 5735 5736 5737 5739 5740 5742 5744 5746 5747 5749 5751
5801 5798 5795 5792 5788 5785 5782 5778 5775 5772 5768 5765 5762 5759 5755 5752 5749 5746 5743 5740 5738 5736 5734 5733 5732 5731 5730 5730 5731 5731 5732 5733 5734 5735 5736 5737 5738 5740 5741 5743 5745 5746 5748
5798 5795 5792 5789 5786 5783 5780 5777 5773 5770 5767 5764 5761 5758 5756 5753 5750 5747 5745 5742 5740 5738 5736 5734 5733 5732 5731 5731 5731 5731 5731 5732 5733 5733 5734 5735 5736 5738 5739 5740 5741 5743 5744
5793 5790 5787 5785 5782 5779 5776 5774 5771 5768 5765 5762 5760 5757 5755 5752 5750 5747 5745 5743 5741 5739 5737 5735 5734 5732 5732 5731 5731 5730 5731 5731 5731 5732 5732 5733 5734 5735 5736 5737 5738 5740 5741
5786 5784 5781 5779 5777 5774 5772 5769 5767 5765 5762 5760 5757 5755 5752 5750 5748 5746 5744 5742 5740 5738 5736 5735 5734 5732 5731 5731 5730 5730 5730 5730 5730 5730 5731 5731 5732 5733 5734 5735 5736 5737 5738
5778 5776 5774 5772 5770 5768 5766 5763 5761 5759 5757 5755 5753 5751 5749 5746 5744 5743 5741 5739 5738 5736 5735 5733 5732 5731 5730 5729 5729 5728 5728 5728 5728 5728 5729 5729 5730 5730 5731 5732 5732 5733 5734
5770 5768 5766 5764 5762 5760 5758 5756 5754 5752 5751 5749 5747 5746 5744 5742 5740 5738 5737 5735 5734 5733 5732 5730 5729 5729 5728 5727 5727 5726 5726 5726 5726 5726 5726 5726 5727 5727 5728 5728 5729 5730 5731
5760 5758 5756 5754 5752 5750 5749 5747 5745 5744 5742 5741 5740 5738 5737 5735 5734 5733 5731 5730 5729 5728 5727 5726 5725 5724 5724 5723 5723 5723 5722 5722 5722 5722 5722 5723 5723 5723 5724 5724 5725 5726 5727
5749 5747 5745 5743 5741 5740 5738 5736 5735 5733 5732 5731 5730 5729 5728 5727 5726 5725 5724 5723 5722 5721 5721 5720 5719 5719 5719 5718 5718 5718 5718 5718 5718 5718 5718 5719 5719 5719 5720 5720 5721 5722 5723
5737 5735 5733 5731 5729 5728 5726 5724 5723 5721 5720 5719 5718 5717 5717 5716 5716 5715 5715 5714 5714 5713 5713 5712 5712 5712 5712 5712 5712 5712 5712 5712 5712 5713 5713 5713 5714 5714 5715 5716 5716 5717 5718
5723 5721 5719 5717 5715 5713 5712 5710 5709 5707 5706 5705 5704 5704 5703 5703 5703 5703 5703 5703 5703 5703 5703 5703 5703 5704 5704 5704 5704 5704 5705 5705 5706 5706 5707 5707 5708 5709 5709 5710 5711 5712 5712
5709 5706 5704 5702 5700 5698 5696 5694 5693 5691 5690 5689 5688 5688 5688 5688 5688 5689 5689 5690 5690 5691 5692 5692 5693 5693 5694 5694 5695 5696 5696 5697 5698 5698 5699 5700 5701 5702 5703 5703 5704 5705 5706
5693 5691 5688 5685 5683 5680 5678 5676 5675 5673 5672 5671 5670 5669 5669 5670 5671 5672 5674 5675 5676 5677 5678 5679 5681 5681 5682 5683 5684 5685 5686 5687 5688 5689 5690 5691 5693 5694 5694 5695 5696 5697 5698